Sultan Azlan Shah Airport
WMKI : now visible

Airfield :











YOU CAN JOIN US ON...

 
LOGIN :

Register | Disclaimer

   EN    FR    IT 

 









Legend :    VFR   Marginal VFR   IFR   Intensive IFR   Very Intensive IFR
Visi :
Ceiling :
>= 8 km
>= 3000ft
5 to 8 km
1000 to 3000 ft
1500m to 5 km
500 to 1000 ft
800 to 1500m
200 to 500 ft
< 800m
< 200 ft
Symbols :   Thunderstorms  Fog  Heavy snow  Heavy precipitations  Wind > 20 kt






- Airport Elevation : 130 ft
- IATA code : IPH


WMKI - Sultan Azlan Shah

CURRENT METAR :
  • 091700Z 03005KT 010V080 8000 FEW005 26/22 Q1012

EXPIRED METARs :
  • 091600Z 00000KT 8000 FEW005 25/24 Q1012
  • 091500Z VRB02KT 8000 FEW005 SCT030 25/24 Q1012

TAF TAF WMKI
Valid from the 09 at 18:00 until the 10 at 18:00 UTC


091700Z 0918/1018 VRB02KT 8000 FEW005
BECMG 1000/1002 9999 FEW017CB
TEMPO 1007/1012 6000 TSRA



MET'MAP, your aeronautical weather chart ! - Copyright ORBIFLY December 2007 - Disclaimer

ORBIFLY MET'MAP TEAM :

Programming & Development : Alexandra Zaïnal
Concept & original design : Baudouin d'Aumeries
Assistance for programming : Marc-Olivier Méhu
Technical & hardware support : Manuel Goepfert

Contact : metmap@orbifly.com




SOURCES & CREDITS :

   NOAA       Earth
Advisory